This is the latest recevied weather packets stored in our database for station/object HEBOWX. If no packets are shown the sender has not sent any weather packets the latest 10 day(s).
| Time | Temp. | Humidity | Pressure | Rain* | Wind** | Luminosity | Snow |
|---|---|---|---|---|---|---|---|
| 1778190935 | 14.44° C | 50% | 1016.3 hPa | 0 mm | - | - | - |
| 1778190635 | 14.44° C | 50% | 1015.9 hPa | 0 mm | - | - | - |
| 1778190335 | 14.44° C | 50% | 1015.7 hPa | 0 mm | - | - | - |
| 1778190035 | 14.44° C | 45% | 1016.1 hPa | 0 mm | - | - | - |
| 1778189735 | 13.89° C | 51% | 1015.7 hPa | 0 mm | - | - | - |
| 1778189436 | 14.44° C | 49% | 1015.7 hPa | 0 mm | - | - | - |
| 1778189135 | 13.89° C | 50% | 1016 hPa | 0 mm | - | - | - |
| 1778188835 | 13.89° C | 49% | 1016.2 hPa | 0 mm | - | - | - |
| 1778188535 | 13.89° C | 48% | 1015.9 hPa | 0 mm | - | - | - |
| 1778188235 | 13.89° C | 50% | 1016.2 hPa | 0 mm | - | - | - |
| 1778187935 | 13.89° C | 50% | 1015.7 hPa | 0 mm | - | - | - |
| 1778187635 | 13.89° C | 49% | 1015.7 hPa | 0 mm | - | - | - |
| 1778187335 | 13.89° C | 51% | 1016.1 hPa | 0 mm | - | - | - |
| 1778187035 | 13.89° C | 50% | 1015.7 hPa | 0 mm | - | - | - |
| 1778186735 | 13.89° C | 50% | 1015.9 hPa | 0 mm | - | - | - |
| 1778186434 | 13.89° C | 49% | 1016 hPa | 0 mm | - | - | - |
| 1778186135 | 13.89° C | 50% | 1015.9 hPa | 0 mm | - | - | - |
| 1778185836 | 13.89° C | 50% | 1015.9 hPa | 0 mm | - | - | - |
| 1778185535 | 13.89° C | 51% | 1016.1 hPa | 0 mm | - | - | - |
| 1778185235 | 13.89° C | 49% | 1016 hPa | 0 mm | - | - | - |
| 1778184935 | 13.89° C | 48% | 1016 hPa | 0 mm | - | - | - |
| 1778184635 | 13.89° C | 50% | 1016 hPa | 0 mm | - | - | - |
| 1778184335 | 13.89° C | 52% | 1016 hPa | 0 mm | - | - | - |
| 1778184035 | 13.33° C | 56% | 1016 hPa | 0 mm | - | - | - |
| 1778183734 | 13.33° C | 55% | 1016.1 hPa | 0 mm | - | - | - |
* Rain latest hour (hover to see other rain measurements)
** Current wind speed in m/s (hover to see current wind gust speed)